User: anonymous   Login
Location: *
(50.5492°N, 7.7469°E)
Time: 05:02:44
(UTC+00:00)
Language:

CZ-2D R/B - Orbit

View from above orbital plane
View from above orbital plane
View from above satellite
View from above satellite

Ground track
Ground track

The orbit data is extracted from the following two-line orbital elements,

1 28738U 05024B   19341.53113095  .00000188  00000-0  14602-4 0  9998
2 28738  97.4001   5.3216 0013280 126.0973 234.1489 15.11920583792273
Epoch (UTC): 07 December 2019 12:44:49
Eccentricity: 0.0013280
inclination: 97.4001°
perigee height: 521 km
apogee height: 539 km
right ascension of ascending node: 5.3216°
argument of perigee: 126.0973°
revolutions per day: 15.11920583
mean anomaly at epoch: 234.1489°
orbit number at epoch: 79227

The dashed part of the orbit path shows where the satellite is in the earth's shadow,  

DLR